Retour au catalogue

STARLINK-30917

ActifCommunicationsVLEO
NORAD 58419·PAYLOAD·🇺🇸 United States

Lancé Nov 22, 2023 depuis Cape Canaveral Space Force Station

Loading…

Prochains Passages (prochaines 24 heures)

TLE

FraisSource: CelesTrak SupGP

Époque: Sep 15, 2026, 02:11 UTC

1 58419C 23180T   26258.09145833  .00043834  00000+0  15878-2 0  2587
2 58419  43.0022 314.1195 0001834 259.3711  87.9155 15.27552286    17

Suivez STARLINK-30917 en temps réel avec AllMySat

Download on the App Store